Location: Bassano
(45.7667°N, 11.7333°E)
Time: 02:33:00
(UTC+00:00)

Cosmos 2360 Rocket - Pass Details

Date: 07 June 2020
Orbit: 832 x 846 km, 71.0° (Epoch: 06 July)

Event Time Altitude Azimuth Distance (km) Brightness Sun altitude
Exits shadow 02:25:32 10° 218° (SW) 2,411 3.9 -8.6°
Maximum altitude 02:31:00 63° 299° (WNW) 932 2.4 -7.9°
Drops below altitude 10° 02:36:36 10° 21° (NNE) 2,464 5.8 -7.2°
Sets 02:39:06 0° 25° (NNE) 3,405 6.8 -6.9°
